Time,TemperatureF,DewpointF,PressureIn,WindDirection,WindDirectionDegrees,WindSpeedMPH,WindSpeedGustMPH,Humidity,HourlyPrecipIn,Conditions,Clouds,dailyrainin,SoftwareType,DateUTC
2013-01-21 00:04:00,15.0,7.0,30.13,West,274,2.0,5.0,70,0.00,,,0.00,,2013-01-21 05:04:00,
2013-01-21 00:13:00,15.0,7.0,30.13,West,274,2.0,5.0,70,0.00,,,0.00,,2013-01-21 05:13:00,
2013-01-21 00:22:00,15.0,7.0,30.13,West,274,2.0,5.0,70,0.00,,,0.00,,2013-01-21 05:22:00,
2013-01-21 00:34:00,15.0,8.0,30.11,NW,324,0.0,2.0,74,0.00,,,0.00,,2013-01-21 05:34:00,
2013-01-21 00:42:00,15.0,8.0,30.11,NW,324,0.0,2.0,74,0.00,,,0.00,,2013-01-21 05:42:00,
2013-01-21 00:53:00,14.0,6.0,30.11,WNW,288,0.0,1.0,71,0.00,,,0.00,,2013-01-21 05:53:00,
2013-01-21 01:03:00,15.0,8.0,30.10,West,280,0.0,1.0,73,0.00,,,0.00,,2013-01-21 06:03:00,
2013-01-21 01:13:00,15.0,8.0,30.10,West,280,0.0,1.0,73,0.00,,,0.00,,2013-01-21 06:13:00,
2013-01-21 01:23:00,14.0,6.0,30.10,WNW,300,0.0,2.0,71,0.00,,,0.00,,2013-01-21 06:23:00,
2013-01-21 01:33:00,14.0,7.0,30.09,WNW,292,0.0,2.0,72,0.00,,,0.00,,2013-01-21 06:33:00,
2013-01-21 01:43:00,14.0,7.0,30.09,WNW,292,0.0,2.0,72,0.00,,,0.00,,2013-01-21 06:43:00,
2013-01-21 01:52:00,14.0,7.0,30.08,WNW,290,0.0,1.0,73,0.00,,,0.00,,2013-01-21 06:52:00,
2013-01-21 02:03:00,14.0,7.0,30.07,West,274,0.0,3.0,74,0.00,,,0.00,,2013-01-21 07:03:00,
2013-01-21 02:13:00,14.0,7.0,30.07,West,274,0.0,3.0,74,0.00,,,0.00,,2013-01-21 07:13:00,
2013-01-21 02:23:00,14.0,8.0,30.07,WNW,286,0.0,1.0,76,0.00,,,0.00,,2013-01-21 07:23:00,
2013-01-21 02:33:00,14.0,8.0,30.07,WNW,286,0.0,1.0,75,0.00,,,0.00,,2013-01-21 07:33:00,
2013-01-21 02:42:00,14.0,8.0,30.07,WNW,286,0.0,1.0,75,0.00,,,0.00,,2013-01-21 07:42:00,
2013-01-21 02:53:00,14.0,8.0,30.07,WSW,253,0.0,1.0,76,0.00,,,0.00,,2013-01-21 07:53:00,
2013-01-21 03:03:00,14.0,8.0,30.07,SSW,210,0.0,1.0,76,0.00,,,0.00,,2013-01-21 08:03:00,
2013-01-21 03:14:00,14.0,8.0,30.07,SSW,210,0.0,1.0,76,0.00,,,0.00,,2013-01-21 08:14:00,
2013-01-21 03:23:00,14.0,8.0,30.06,SW,225,0.0,1.0,77,0.00,,,0.00,,2013-01-21 08:23:00,
2013-01-21 03:33:00,14.0,8.0,30.06,SW,225,0.0,1.0,77,0.00,,,0.00,,2013-01-21 08:33:00,
2013-01-21 03:42:00,14.0,8.0,30.06,SW,225,0.0,1.0,77,0.00,,,0.00,,2013-01-21 08:42:00,
2013-01-21 03:53:00,14.0,9.0,30.05,SSW,205,0.0,1.0,79,0.00,,,0.00,,2013-01-21 08:53:00,
2013-01-21 04:03:00,14.0,9.0,30.04,SE,133,0.0,1.0,80,0.00,,,0.00,,2013-01-21 09:03:00,
2013-01-21 04:13:00,14.0,9.0,30.04,SE,133,0.0,1.0,80,0.00,,,0.00,,2013-01-21 09:13:00,
2013-01-21 04:23:00,14.0,9.0,30.04,SE,132,0.0,1.0,81,0.00,,,0.00,,2013-01-21 09:23:00,
2013-01-21 04:33:00,14.0,9.0,30.03,SSW,208,0.0,1.0,81,0.00,,,0.00,,2013-01-21 09:33:00,
2013-01-21 04:42:00,14.0,9.0,30.03,SSW,208,0.0,1.0,81,0.00,,,0.00,,2013-01-21 09:42:00,
2013-01-21 04:53:00,14.0,10.0,30.02,South,190,0.0,0.0,83,0.00,,,0.00,,2013-01-21 09:53:00,
2013-01-21 05:02:00,14.0,10.0,30.01,East,91,0.0,0.0,84,0.00,,,0.00,,2013-01-21 10:02:00,
2013-01-21 05:12:00,14.0,10.0,30.01,East,91,0.0,0.0,84,0.00,,,0.00,,2013-01-21 10:12:00,
2013-01-21 05:22:00,14.0,10.0,30.01,East,91,0.0,0.0,84,0.00,,,0.00,,2013-01-21 10:22:00,
2013-01-21 05:33:00,14.0,11.0,30.00,ESE,113,0.0,0.0,86,0.00,,,0.00,,2013-01-21 10:33:00,
2013-01-21 05:43:00,14.0,11.0,30.00,ESE,113,0.0,0.0,86,0.00,,,0.00,,2013-01-21 10:43:00,
2013-01-21 05:53:00,14.0,11.0,29.99,East,100,0.0,0.0,87,0.00,,,0.00,,2013-01-21 10:53:00,
2013-01-21 06:03:00,14.0,11.0,29.99,East,101,0.0,0.0,87,0.00,,,0.00,,2013-01-21 11:03:00,
2013-01-21 06:13:00,14.0,11.0,29.99,East,101,0.0,0.0,87,0.00,,,0.00,,2013-01-21 11:13:00,
2013-01-21 06:23:00,14.0,11.0,29.98,SW,236,0.0,2.0,89,0.00,,,0.00,,2013-01-21 11:23:00,
2013-01-21 06:33:00,15.0,12.0,29.98,SSW,197,2.0,3.0,87,0.00,,,0.00,,2013-01-21 11:33:00,
2013-01-21 06:43:00,15.0,12.0,29.98,SSW,197,2.0,3.0,87,0.00,,,0.00,,2013-01-21 11:43:00,
2013-01-21 06:53:00,15.0,12.0,29.98,West,259,1.0,6.0,86,0.00,,,0.00,,2013-01-21 11:53:00,
2013-01-21 07:02:00,16.0,12.0,29.98,WSW,249,2.0,6.0,85,0.00,,,0.00,,2013-01-21 12:02:00,
2013-01-21 07:12:00,16.0,12.0,29.98,WSW,249,2.0,6.0,85,0.00,,,0.00,,2013-01-21 12:12:00,
2013-01-21 07:22:00,16.0,12.0,29.98,SW,233,3.0,6.0,85,0.00,,,0.00,,2013-01-21 12:22:00,
2013-01-21 07:33:00,16.0,13.0,29.97,West,263,2.0,5.0,86,0.00,,,0.00,,2013-01-21 12:33:00,
2013-01-21 07:42:00,16.0,13.0,29.97,West,263,2.0,5.0,86,0.00,,,0.00,,2013-01-21 12:42:00,
2013-01-21 07:53:00,16.0,13.0,29.98,WSW,256,4.0,9.0,86,0.00,,,0.00,,2013-01-21 12:53:00,
2013-01-21 08:03:00,15.0,12.0,29.97,WNW,291,4.0,6.0,87,0.00,,,0.00,,2013-01-21 13:03:00,
2013-01-21 08:13:00,15.0,12.0,29.97,WNW,291,4.0,6.0,87,0.00,,,0.00,,2013-01-21 13:13:00,
2013-01-21 08:23:00,14.0,12.0,29.98,WSW,246,3.0,6.0,90,0.00,,,0.00,,2013-01-21 13:23:00,
2013-01-21 08:33:00,14.0,12.0,29.98,West,280,3.0,6.0,90,0.00,,,0.00,,2013-01-21 13:33:00,
2013-01-21 08:43:00,14.0,12.0,29.98,West,280,3.0,6.0,90,0.00,,,0.00,,2013-01-21 13:43:00,
2013-01-21 08:54:00,13.0,11.0,29.97,WNW,283,2.0,6.0,91,0.00,,,0.00,,2013-01-21 13:54:00,
2013-01-21 09:03:00,13.0,11.0,29.98,WNW,290,2.0,5.0,91,0.00,,,0.00,,2013-01-21 14:03:00,
2013-01-21 09:12:00,13.0,11.0,29.98,WNW,290,2.0,5.0,91,0.00,,,0.00,,2013-01-21 14:12:00,
2013-01-21 09:23:00,13.0,10.0,29.98,WNW,283,3.0,6.0,89,0.00,,,0.00,,2013-01-21 14:23:00,
2013-01-21 09:32:00,13.0,10.0,29.98,WNW,283,3.0,6.0,89,0.00,,,0.00,,2013-01-21 14:32:00,
2013-01-21 09:43:00,13.0,10.0,29.98,WNW,283,3.0,6.0,89,0.00,,,0.00,,2013-01-21 14:43:00,
2013-01-21 09:53:00,13.0,10.0,29.98,WNW,288,3.0,5.0,89,0.00,,,0.00,,2013-01-21 14:53:00,
2013-01-21 10:03:00,13.0,10.0,29.98,NW,316,2.0,5.0,88,0.00,,,0.00,,2013-01-21 15:03:00,
2013-01-21 10:13:00,13.0,10.0,29.98,NW,316,2.0,5.0,88,0.00,,,0.00,,2013-01-21 15:13:00,
2013-01-21 10:23:00,13.0,10.0,29.98,NNE,30,2.0,5.0,87,0.00,,,0.00,,2013-01-21 15:23:00,
2013-01-21 10:33:00,13.0,10.0,29.98,West,277,2.0,7.0,87,0.00,,,0.00,,2013-01-21 15:33:00,
2013-01-21 10:43:00,13.0,10.0,29.98,West,277,2.0,7.0,87,0.00,,,0.00,,2013-01-21 15:43:00,
2013-01-21 10:53:00,13.0,10.0,29.98,NW,322,2.0,4.0,87,0.00,,,0.00,,2013-01-21 15:53:00,
2013-01-21 11:04:00,13.0,10.0,29.98,NW,323,3.0,7.0,87,0.00,,,0.00,,2013-01-21 16:04:00,
2013-01-21 11:13:00,13.0,10.0,29.98,NW,323,3.0,7.0,87,0.00,,,0.00,,2013-01-21 16:13:00,
2013-01-21 11:23:00,13.0,9.0,29.97,WNW,283,3.0,6.0,84,0.00,,,0.00,,2013-01-21 16:23:00,
2013-01-21 11:33:00,13.0,9.0,29.97,West,280,1.0,4.0,85,0.00,,,0.00,,2013-01-21 16:33:00,
2013-01-21 11:43:00,13.0,9.0,29.97,West,280,1.0,4.0,85,0.00,,,0.00,,2013-01-21 16:43:00,
2013-01-21 11:53:00,13.0,9.0,29.97,WNW,296,3.0,6.0,85,0.00,,,0.00,,2013-01-21 16:53:00,
2013-01-21 12:03:00,12.0,8.0,29.96,West,279,4.0,7.0,85,0.00,,,0.00,,2013-01-21 17:03:00,
2013-01-21 12:12:00,12.0,8.0,29.96,West,279,4.0,7.0,85,0.00,,,0.00,,2013-01-21 17:12:00,
2013-01-21 12:23:00,13.0,10.0,29.96,WNW,302,2.0,6.0,87,0.00,,,0.00,,2013-01-21 17:23:00,
2013-01-21 12:33:00,13.0,9.0,29.95,WNW,290,3.0,6.0,84,0.00,,,0.00,,2013-01-21 17:33:00,
2013-01-21 12:43:00,13.0,9.0,29.95,WNW,290,3.0,6.0,84,0.00,,,0.00,,2013-01-21 17:43:00,
2013-01-21 12:53:00,13.0,7.0,29.95,WNW,283,6.0,11.0,76,0.00,,,0.00,,2013-01-21 17:53:00,
2013-01-21 13:03:00,13.0,7.0,29.94,WNW,292,2.0,9.0,76,0.00,,,0.00,,2013-01-21 18:03:00,
2013-01-21 13:12:00,13.0,7.0,29.94,WNW,292,2.0,9.0,76,0.00,,,0.00,,2013-01-21 18:12:00,
2013-01-21 13:23:00,13.0,7.0,29.94,NW,309,2.0,9.0,76,0.00,,,0.00,,2013-01-21 18:23:00,
2013-01-21 13:33:00,13.0,6.0,29.94,NW,316,4.0,11.0,74,0.00,,,0.00,,2013-01-21 18:33:00,
2013-01-21 13:43:00,13.0,6.0,29.94,NW,316,4.0,11.0,74,0.00,,,0.00,,2013-01-21 18:43:00,
2013-01-21 13:53:00,12.0,6.0,29.94,West,281,4.0,8.0,75,0.00,,,0.00,,2013-01-21 18:53:00,
2013-01-21 14:03:00,12.0,6.0,29.94,West,280,5.0,12.0,77,0.00,,,0.00,,2013-01-21 19:03:00,
2013-01-21 14:12:00,12.0,6.0,29.94,West,280,5.0,12.0,77,0.00,,,0.00,,2013-01-21 19:12:00,
2013-01-21 14:22:00,11.0,6.0,29.95,WNW,288,6.0,13.0,80,0.00,,,0.00,,2013-01-21 19:22:00,
2013-01-21 14:33:00,11.0,6.0,29.95,WNW,283,4.0,9.0,80,0.00,,,0.00,,2013-01-21 19:33:00,
2013-01-21 14:43:00,11.0,6.0,29.95,WNW,283,4.0,9.0,80,0.00,,,0.00,,2013-01-21 19:43:00,
2013-01-21 14:53:00,12.0,4.0,29.95,WSW,249,6.0,12.0,71,0.00,,,0.00,,2013-01-21 19:53:00,
2013-01-21 15:03:00,12.0,5.0,29.96,NW,324,4.0,13.0,74,0.00,,,0.00,,2013-01-21 20:03:00,
2013-01-21 15:12:00,12.0,5.0,29.96,NW,324,4.0,13.0,74,0.00,,,0.00,,2013-01-21 20:12:00,
2013-01-21 15:23:00,11.0,4.0,29.96,West,273,6.0,14.0,72,0.00,,,0.00,,2013-01-21 20:23:00,
2013-01-21 15:33:00,11.0,2.0,29.96,West,271,5.0,14.0,65,0.00,,,0.00,,2013-01-21 20:33:00,
2013-01-21 15:43:00,11.0,2.0,29.96,West,271,5.0,14.0,65,0.00,,,0.00,,2013-01-21 20:43:00,
2013-01-21 15:53:00,12.0,2.0,29.97,WNW,288,5.0,13.0,63,0.00,,,0.00,,2013-01-21 20:53:00,
2013-01-21 16:04:00,11.0,1.0,29.97,WNW,287,7.0,15.0,63,0.00,,,0.00,,2013-01-21 21:04:00,
2013-01-21 16:12:00,11.0,1.0,29.97,WNW,287,7.0,15.0,63,0.00,,,0.00,,2013-01-21 21:12:00,
2013-01-21 16:23:00,11.0,2.0,29.98,WNW,284,9.0,16.0,65,0.00,,,0.00,,2013-01-21 21:23:00,
2013-01-21 16:33:00,10.0,3.0,29.98,WNW,290,3.0,9.0,73,0.00,,,0.00,,2013-01-21 21:33:00,
2013-01-21 16:43:00,10.0,3.0,29.98,WNW,290,3.0,9.0,73,0.00,,,0.00,,2013-01-21 21:43:00,
2013-01-21 16:54:00,10.0,3.0,29.99,WNW,286,4.0,8.0,74,0.00,,,0.00,,2013-01-21 21:54:00,
2013-01-21 17:03:00,10.0,5.0,29.99,WNW,285,7.0,13.0,80,0.00,,,0.00,,2013-01-21 22:03:00,
2013-01-21 17:13:00,10.0,5.0,29.99,WNW,285,7.0,13.0,80,0.00,,,0.00,,2013-01-21 22:13:00,
2013-01-21 17:23:00,10.0,2.0,30.00,WNW,285,5.0,14.0,68,0.00,,,0.00,,2013-01-21 22:23:00,
2013-01-21 17:33:00,9.0,-1.0,30.00,West,273,5.0,9.0,64,0.00,,,0.00,,2013-01-21 22:33:00,
2013-01-21 17:43:00,9.0,-1.0,30.00,West,273,5.0,9.0,64,0.00,,,0.00,,2013-01-21 22:43:00,
2013-01-21 17:53:00,9.0,0.0,30.01,West,281,4.0,10.0,66,0.00,,,0.00,,2013-01-21 22:53:00,
2013-01-21 18:03:00,8.0,3.0,30.01,WSW,255,7.0,12.0,79,0.00,,,0.00,,2013-01-21 23:03:00,
2013-01-21 18:13:00,8.0,3.0,30.01,WSW,255,7.0,12.0,79,0.00,,,0.00,,2013-01-21 23:13:00,
2013-01-21 18:23:00,8.0,1.0,30.01,West,280,6.0,14.0,74,0.00,,,0.00,,2013-01-21 23:23:00,
2013-01-21 18:33:00,7.0,0.0,30.02,West,280,7.0,13.0,72,0.00,,,0.00,,2013-01-21 23:33:00,
2013-01-21 18:42:00,7.0,0.0,30.02,West,280,7.0,13.0,72,0.00,,,0.00,,2013-01-21 23:42:00,
2013-01-21 18:53:00,7.0,0.0,30.02,WNW,292,6.0,11.0,71,0.00,,,0.00,,2013-01-21 23:53:00,
2013-01-21 19:03:00,7.0,0.0,30.03,WNW,297,5.0,8.0,71,0.00,,,0.00,,2013-01-22 00:03:00,
2013-01-21 19:12:00,7.0,0.0,30.03,WNW,297,5.0,8.0,71,0.00,,,0.00,,2013-01-22 00:12:00,
2013-01-21 19:23:00,6.0,-1.0,30.03,West,281,5.0,10.0,73,0.00,,,0.00,,2013-01-22 00:23:00,
2013-01-21 19:33:00,6.0,-1.0,30.03,West,276,5.0,13.0,72,0.00,,,0.00,,2013-01-22 00:33:00,
2013-01-21 19:43:00,6.0,-1.0,30.03,West,276,5.0,13.0,72,0.00,,,0.00,,2013-01-22 00:43:00,
2013-01-21 19:53:00,6.0,-1.0,30.04,WNW,288,5.0,9.0,73,0.00,,,0.00,,2013-01-22 00:53:00,
2013-01-21 20:02:00,6.0,0.0,30.04,WNW,290,2.0,8.0,74,0.00,,,0.00,,2013-01-22 01:02:00,
2013-01-21 20:12:00,6.0,0.0,30.04,WNW,290,2.0,8.0,74,0.00,,,0.00,,2013-01-22 01:12:00,
2013-01-21 20:23:00,5.0,-2.0,30.04,WNW,290,3.0,7.0,73,0.00,,,0.00,,2013-01-22 01:23:00,
2013-01-21 20:33:00,5.0,-2.0,30.04,WNW,285,4.0,8.0,72,0.00,,,0.00,,2013-01-22 01:33:00,
2013-01-21 20:43:00,5.0,-2.0,30.04,WNW,285,4.0,8.0,72,0.00,,,0.00,,2013-01-22 01:43:00,
2013-01-21 20:53:00,5.0,-2.0,30.04,WNW,285,4.0,8.0,72,0.00,,,0.00,,2013-01-22 01:53:00,
2013-01-21 21:02:00,5.0,-2.0,30.05,West,276,2.0,9.0,73,0.00,,,0.00,,2013-01-22 02:02:00,
2013-01-21 21:12:00,5.0,-2.0,30.05,West,276,2.0,9.0,73,0.00,,,0.00,,2013-01-22 02:12:00,
2013-01-21 21:23:00,4.0,-2.0,30.05,WNW,284,3.0,6.0,76,0.00,,,0.00,,2013-01-22 02:23:00,
2013-01-21 21:33:00,4.0,-2.0,30.06,West,281,3.0,6.0,77,0.00,,,0.00,,2013-01-22 02:33:00,
2013-01-21 21:43:00,4.0,-2.0,30.06,West,281,3.0,6.0,77,0.00,,,0.00,,2013-01-22 02:43:00,
2013-01-21 21:53:00,4.0,-1.0,30.06,WNW,285,2.0,4.0,79,0.00,,,0.00,,2013-01-22 02:53:00,
2013-01-21 22:03:00,3.0,-2.0,30.06,WNW,293,1.0,4.0,80,0.00,,,0.00,,2013-01-22 03:03:00,
2013-01-21 22:12:00,3.0,-2.0,30.06,WNW,293,1.0,4.0,80,0.00,,,0.00,,2013-01-22 03:12:00,
2013-01-21 22:22:00,3.0,-1.0,30.06,WNW,294,2.0,4.0,81,0.00,,,0.00,,2013-01-22 03:22:00,
2013-01-21 22:32:00,3.0,-1.0,30.07,West,278,1.0,3.0,81,0.00,,,0.00,,2013-01-22 03:32:00,
2013-01-21 22:42:00,3.0,-1.0,30.07,West,278,1.0,3.0,81,0.00,,,0.00,,2013-01-22 03:42:00,
2013-01-21 22:53:00,3.0,-1.0,30.07,West,267,1.0,2.0,82,0.00,,,0.00,,2013-01-22 03:53:00,
2013-01-21 23:03:00,3.0,-1.0,30.07,SW,233,2.0,3.0,83,0.00,,,0.00,,2013-01-22 04:03:00,
2013-01-21 23:12:00,3.0,-1.0,30.07,SW,233,2.0,3.0,83,0.00,,,0.00,,2013-01-22 04:12:00,
2013-01-21 23:22:00,3.0,-1.0,30.07,SW,233,2.0,3.0,83,0.00,,,0.00,,2013-01-22 04:22:00,
2013-01-21 23:33:00,2.0,-2.0,30.08,WNW,285,2.0,5.0,83,0.00,,,0.00,,2013-01-22 04:33:00,
2013-01-21 23:42:00,2.0,-2.0,30.08,WNW,285,2.0,5.0,83,0.00,,,0.00,,2013-01-22 04:42:00,
2013-01-21 23:53:00,2.0,-2.0,30.09,West,276,3.0,9.0,81,0.00,,,0.00,,2013-01-22 04:53:00,